TimeEST,TemperatureF,Dew PointF,Humidity,Sea Level PressureIn,VisibilityMPH,Wind Direction,Wind SpeedMPH,Gust SpeedMPH,PrecipitationIn,Events,Conditions,WindDirDegrees,DateUTC
12:15 AM,68.0,62.6,83,30.09,10.0,West,5.8,-,N/A,,Clear,260,2012-11-04 04:15:00
12:35 AM,68.0,62.6,83,30.09,10.0,WSW,5.8,-,N/A,,Clear,250,2012-11-04 04:35:00
12:55 AM,68.0,62.6,83,30.09,10.0,WSW,5.8,-,N/A,,Clear,250,2012-11-04 04:55:00
1:15 AM,66.2,62.6,88,30.09,10.0,WSW,4.6,-,N/A,,Clear,250,2012-11-04 05:15:00
1:35 AM,66.2,62.6,88,30.08,10.0,WSW,4.6,-,N/A,,Clear,250,2012-11-04 05:35:00
1:55 AM,66.2,60.8,83,30.08,10.0,WSW,3.5,-,N/A,,Clear,240,2012-11-04 05:55:00
1:15 AM,64.4,60.8,88,30.09,10.0,WSW,4.6,-,N/A,,Clear,250,2012-11-04 06:15:00
1:55 AM,64.4,60.8,88,30.08,10.0,West,4.6,-,N/A,,Clear,260,2012-11-04 06:55:00
2:15 AM,64.4,60.8,88,30.08,10.0,West,5.8,-,N/A,,Clear,260,2012-11-04 07:15:00
2:35 AM,64.4,60.8,88,30.08,10.0,West,5.8,-,N/A,,Clear,260,2012-11-04 07:35:00
2:55 AM,64.4,60.8,88,30.08,10.0,WSW,4.6,-,N/A,,Clear,250,2012-11-04 07:55:00
3:15 AM,64.4,60.8,88,30.07,10.0,WSW,4.6,-,N/A,,Clear,250,2012-11-04 08:15:00
3:35 AM,64.4,60.8,88,30.07,10.0,WSW,4.6,-,N/A,,Clear,250,2012-11-04 08:35:00
3:55 AM,64.4,60.8,88,30.07,10.0,WSW,5.8,-,N/A,,Clear,250,2012-11-04 08:55:00
4:15 AM,62.6,60.8,94,30.07,10.0,WSW,4.6,-,N/A,,Clear,250,2012-11-04 09:15:00
4:35 AM,62.6,59.0,88,30.08,10.0,WSW,3.5,-,N/A,,Clear,240,2012-11-04 09:35:00
4:55 AM,62.6,60.8,94,30.08,10.0,WSW,3.5,-,N/A,,Clear,250,2012-11-04 09:55:00
5:15 AM,62.6,60.8,94,30.08,10.0,WSW,3.5,-,N/A,,Clear,250,2012-11-04 10:15:00
5:35 AM,62.6,60.8,94,30.08,10.0,WSW,3.5,-,N/A,,Clear,250,2012-11-04 10:35:00
5:55 AM,62.6,59.0,88,30.07,10.0,WSW,3.5,-,N/A,,Clear,250,2012-11-04 10:55:00
6:15 AM,59.0,55.4,88,30.08,10.0,Calm,Calm,-,N/A,,Clear,0,2012-11-04 11:15:00
6:35 AM,57.2,55.4,94,30.08,10.0,Calm,Calm,-,N/A,,Clear,0,2012-11-04 11:35:00
6:55 AM,57.2,55.4,94,30.08,10.0,Calm,Calm,-,N/A,,Clear,0,2012-11-04 11:55:00
7:15 AM,57.2,55.4,94,30.08,10.0,Calm,Calm,-,N/A,,Clear,0,2012-11-04 12:15:00
7:35 AM,59.0,57.2,94,30.09,10.0,Calm,Calm,-,N/A,,Clear,0,2012-11-04 12:35:00
7:55 AM,60.8,59.0,94,30.09,10.0,Calm,Calm,-,N/A,,Clear,0,2012-11-04 12:55:00
8:15 AM,64.4,60.8,88,30.10,10.0,Calm,Calm,-,N/A,,Clear,0,2012-11-04 13:15:00
8:55 AM,69.8,62.6,78,30.09,10.0,West,5.8,-,N/A,,Clear,270,2012-11-04 13:55:00
9:15 AM,69.8,62.6,78,30.09,10.0,West,5.8,-,N/A,,Clear,270,2012-11-04 14:15:00
9:35 AM,71.6,62.6,73,30.09,10.0,West,5.8,-,N/A,,Clear,270,2012-11-04 14:35:00
9:55 AM,73.4,62.6,69,30.08,10.0,West,4.6,-,N/A,,Clear,270,2012-11-04 14:55:00
10:15 AM,73.4,60.8,65,30.08,10.0,NW,4.6,-,N/A,,Clear,310,2012-11-04 15:15:00
10:35 AM,75.2,62.6,65,30.08,10.0,Calm,Calm,-,N/A,,Clear,0,2012-11-04 15:35:00
10:55 AM,77.0,60.8,57,30.07,10.0,West,8.1,-,N/A,,Clear,270,2012-11-04 15:55:00
11:15 AM,77.0,60.8,57,30.07,10.0,WNW,6.9,-,N/A,,Clear,290,2012-11-04 16:15:00
11:35 AM,78.8,60.8,54,30.06,10.0,WSW,6.9,-,N/A,,Clear,240,2012-11-04 16:35:00
11:55 AM,78.8,60.8,54,30.05,10.0,WSW,6.9,-,N/A,,Clear,250,2012-11-04 16:55:00
12:15 PM,78.8,60.8,54,30.04,10.0,WSW,9.2,-,N/A,,Scattered Clouds,250,2012-11-04 17:15:00
12:35 PM,80.6,60.8,51,30.03,10.0,SW,9.2,-,N/A,,Mostly Cloudy,220,2012-11-04 17:35:00
12:55 PM,80.6,59.0,48,30.02,10.0,WSW,9.2,-,N/A,,Scattered Clouds,240,2012-11-04 17:55:00
1:15 PM,78.8,59.0,51,30.02,10.0,WNW,5.8,-,N/A,,Mostly Cloudy,290,2012-11-04 18:15:00
1:35 PM,78.8,59.0,51,30.01,10.0,West,6.9,-,N/A,,Mostly Cloudy,260,2012-11-04 18:35:00
1:55 PM,80.6,59.0,48,30.00,10.0,SW,6.9,-,N/A,,Scattered Clouds,230,2012-11-04 18:55:00
2:15 PM,80.6,59.0,48,30.00,10.0,SW,10.4,-,N/A,,Scattered Clouds,220,2012-11-04 19:15:00
2:35 PM,78.8,59.0,51,29.99,10.0,SW,8.1,-,N/A,,Scattered Clouds,230,2012-11-04 19:35:00
2:55 PM,80.6,59.0,48,29.99,10.0,SW,9.2,-,N/A,,Scattered Clouds,230,2012-11-04 19:55:00
3:15 PM,78.8,59.0,51,29.98,10.0,WSW,6.9,-,N/A,,Clear,250,2012-11-04 20:15:00
3:35 PM,80.6,57.2,45,29.98,10.0,WSW,8.1,-,N/A,,Clear,240,2012-11-04 20:35:00
3:55 PM,78.8,55.4,44,29.98,10.0,West,6.9,-,N/A,,Clear,270,2012-11-04 20:55:00
4:15 PM,78.8,59.0,51,29.98,10.0,WSW,8.1,-,N/A,,Clear,250,2012-11-04 21:15:00
4:35 PM,78.8,59.0,51,29.98,10.0,WSW,6.9,-,N/A,,Clear,240,2012-11-04 21:35:00
4:55 PM,78.8,59.0,51,29.97,10.0,WSW,6.9,-,N/A,,Scattered Clouds,250,2012-11-04 21:55:00
5:15 PM,77.0,59.0,54,29.98,10.0,WSW,6.9,-,N/A,,Scattered Clouds,250,2012-11-04 22:15:00
5:35 PM,71.6,59.0,64,29.97,10.0,SW,9.2,-,N/A,Thunderstorm,Unknown,230,2012-11-04 22:35:00
5:55 PM,71.6,55.4,57,29.98,10.0,WSW,6.9,-,N/A,,Mostly Cloudy,240,2012-11-04 22:55:00
6:15 PM,71.6,55.4,57,29.98,10.0,WSW,5.8,-,N/A,Thunderstorm,Mostly Cloudy,240,2012-11-04 23:15:00
6:35 PM,69.8,55.4,60,29.98,10.0,WSW,4.6,-,N/A,,Scattered Clouds,250,2012-11-04 23:35:00
6:55 PM,68.0,59.0,73,29.98,10.0,SW,4.6,-,N/A,,Clear,230,2012-11-04 23:55:00
7:15 PM,68.0,59.0,73,29.99,10.0,SW,6.9,-,N/A,,Clear,230,2012-11-05 00:15:00
7:35 PM,68.0,59.0,73,29.98,10.0,WSW,4.6,-,N/A,,Clear,240,2012-11-05 00:35:00
7:55 PM,68.0,59.0,73,29.98,10.0,SW,3.5,-,N/A,,Clear,230,2012-11-05 00:55:00
8:15 PM,68.0,59.0,73,29.99,10.0,NNW,5.8,16.1,N/A,,Mostly Cloudy,340,2012-11-05 01:15:00
8:35 PM,68.0,59.0,73,29.99,10.0,SSW,5.8,-,N/A,,Mostly Cloudy,210,2012-11-05 01:35:00
8:55 PM,66.2,59.0,78,30.01,10.0,SW,3.5,-,N/A,,Mostly Cloudy,230,2012-11-05 01:55:00
9:15 PM,66.2,59.0,78,30.01,10.0,West,3.5,-,N/A,,Mostly Cloudy,270,2012-11-05 02:15:00
9:35 PM,64.4,59.0,83,30.01,10.0,Calm,Calm,-,N/A,,Scattered Clouds,0,2012-11-05 02:35:00
9:55 PM,64.4,57.2,77,30.01,10.0,West,4.6,-,N/A,,Scattered Clouds,260,2012-11-05 02:55:00
10:15 PM,64.4,57.2,77,30.01,10.0,West,5.8,-,N/A,,Scattered Clouds,260,2012-11-05 03:15:00
10:35 PM,64.4,57.2,77,30.01,10.0,West,4.6,-,N/A,,Scattered Clouds,280,2012-11-05 03:35:00
10:55 PM,64.4,57.2,77,30.01,10.0,West,3.5,-,N/A,,Clear,270,2012-11-05 03:55:00